Weather History for Kenosha, WI

Change the Weather History Date:

Thursday, September 12, 2013

  Actual Average Record
Temperature  
Mean Temperature 68 °F -  
Max Temperature 80 °F 72 °F 90 °F (2005)
Min Temperature 57 °F 55 °F 41 °F (2007)
Cooling Degree Days 3    
Growing Degree Days 18 (Base 50)    
Moisture  
Dew Point 59 °F    
Average Humidity 82    
Maximum Humidity 100    
Minimum Humidity 47    
Precipitation  
Precipitation 0.03 in - - ()
Sea Level Pressure  
Sea Level Pressure 30.00 in    
Wind  
Wind Speed 5 mph (NW)    
Max Wind Speed 15 mph    
Max Gust Speed 26 mph    
Visibility 7 miles    
Events Fog , Rain , Tornado    
Averages and records for this station are not official NWS values.
T = Trace of Precipitation, MM = Missing Value Source: NWS Daily Summary

Daily Weather History Graph

Daily Weather History Graph

Search for Another Location

Airport:

Trip Planner

Search our weather history database for the weather conditions in past years. The results will help you decide how hot, cold, wet, or windy it might be!

Date:

Astronomy

Sep. 12, 2013 Rise Set
Actual Time 6:28 AM CDT 7:06 PM CDT
Civil Twilight 6:00 AM CDT 7:34 PM CDT
Nautical Twilight 5:26 AM CDT 8:08 PM CDT
Astronomical Twilight 4:51 AM CDT 8:42 PM CDT
Moon 2:04 PM CDT (9/12) 11:53 PM CDT (9/12)
Length of Visible Light 13h 34m
Length of Day
12h 37m
Waxing Crescent, 50% of the Moon is Illuminated
Sep 12
Waxing Crescent
Sep 12
First Quarter
Sep 19
Full
Sep 26
Last Quarter
Oct 4
New

Hourly Weather History & Observations

Time (CDT) Temp. Dew Point Humidity Pressure Visibility Wind Dir Wind Speed Gust Speed Precip Events Conditions
12:53 AM 66.9 °F 64.0 °F 90% 29.97 in 10.0 mi West 5.8 mph - N/A   Clear
1:53 AM 66.9 °F 63.0 °F 87% 29.98 in 10.0 mi WNW 5.8 mph - N/A   Clear
2:53 AM 66.0 °F 62.1 °F 87% 29.97 in 10.0 mi NW 4.6 mph - N/A   Clear
3:53 AM 63.0 °F 61.0 °F 93% 29.98 in 10.0 mi WNW 3.5 mph - N/A   Clear
4:19 AM 60.8 °F 60.8 °F 100% 29.99 in 1.8 mi West 3.5 mph - 0.01 in   Clear
4:25 AM 62.6 °F 60.8 °F 94% 29.99 in 4.0 mi West 3.5 mph - 0.01 in   Clear
4:53 AM 61.0 °F 61.0 °F 100% 29.98 in 2.5 mi Calm Calm - 0.01 in   Clear
4:56 AM 60.8 °F 60.8 °F 100% 29.99 in 0.8 mi Calm Calm - N/A   Clear
5:14 AM 60.8 °F 59.0 °F 94% 29.99 in 2.0 mi Calm Calm - N/A   Clear
5:24 AM 60.8 °F 59.0 °F 94% 29.99 in 1.0 mi WSW 3.5 mph - N/A   Clear
5:32 AM 60.8 °F 59.0 °F 94% 30.00 in 0.8 mi WSW 3.5 mph - N/A   Clear
5:38 AM 60.8 °F 59.0 °F 94% 30.00 in 0.2 mi WSW 3.5 mph - N/A Fog Fog
5:53 AM 59.0 °F 59.0 °F 100% 29.99 in 0.2 mi Calm Calm - N/A Fog Fog
6:23 AM 60.8 °F 59.0 °F 94% 30.00 in 1.2 mi Calm Calm - N/A   Clear
6:32 AM 60.8 °F 59.0 °F 94% 30.00 in 2.0 mi WSW 3.5 mph - N/A   Clear
6:35 AM 60.8 °F 59.0 °F 94% 30.00 in 0.8 mi West 3.5 mph - N/A   Clear
6:44 AM 60.8 °F 59.0 °F 94% 30.00 in 0.2 mi West 3.5 mph - N/A Fog Fog
6:53 AM 57.9 °F 57.0 °F 97% 30.00 in 6.0 mi Calm Calm - N/A Fog Shallow Fog
7:53 AM 64.0 °F 63.0 °F 96% 29.99 in 10.0 mi West 4.6 mph - N/A   Partly Cloudy
8:53 AM 69.1 °F 64.0 °F 84% 29.99 in 9.0 mi Calm Calm - N/A   Mostly Cloudy
9:53 AM 73.0 °F 63.0 °F 71% 29.99 in 10.0 mi West 8.1 mph - N/A   Mostly Cloudy
10:53 AM 77.0 °F 62.1 °F 60% 29.97 in 10.0 mi SSW 8.1 mph - N/A   Scattered Clouds
11:53 AM 78.1 °F 59.0 °F 52% 29.95 in 10.0 mi West 5.8 mph - N/A   Scattered Clouds
12:53 PM 79.0 °F 59.0 °F 50% 29.96 in 10.0 mi WNW 15.0 mph 21.9 mph N/A   Scattered Clouds
1:22 PM 78.8 °F 57.2 °F 47% 29.98 in 10.0 mi NNW 11.5 mph 24.2 mph N/A Tornado Funnel Cloud
1:34 PM 69.8 °F 57.2 °F 64% 29.99 in 10.0 mi NNE 13.8 mph 26.5 mph N/A Tornado Funnel Cloud
1:39 PM 71.6 °F 59.0 °F 64% 29.99 in 10.0 mi NNE 13.8 mph 20.7 mph N/A   Mostly Cloudy
1:53 PM 71.1 °F 62.1 °F 73% 29.98 in 10.0 mi NNE 12.7 mph - N/A   Mostly Cloudy
2:53 PM 70.0 °F 60.1 °F 71% 30.00 in 10.0 mi NNE 12.7 mph 23.0 mph N/A   Mostly Cloudy
3:53 PM 71.1 °F 57.0 °F 61% 30.00 in 10.0 mi NNE 10.4 mph - N/A   Partly Cloudy
4:53 PM 71.1 °F 57.0 °F 61% 30.00 in 10.0 mi NNE 9.2 mph - N/A   Clear
5:53 PM 68.0 °F 57.0 °F 68% 30.03 in 10.0 mi NE 9.2 mph - N/A   Mostly Cloudy
6:53 PM 64.0 °F 55.9 °F 75% 30.04 in 10.0 mi NNE 4.6 mph - N/A   Partly Cloudy
7:53 PM 62.1 °F 57.9 °F 86% 30.06 in 10.0 mi North 3.5 mph - 0.02 in Rain Light Rain
8:53 PM 61.0 °F 57.0 °F 87% 30.08 in 10.0 mi NNW 3.5 mph - 0.00 in   Partly Cloudy
9:53 PM 60.1 °F 55.0 °F 83% 30.08 in 10.0 mi NNE 5.8 mph - N/A   Partly Cloudy
10:53 PM 57.9 °F 53.1 °F 84% 30.09 in 10.0 mi North 5.8 mph - N/A   Partly Cloudy
11:53 PM 57.9 °F 50.0 °F 75% 30.11 in 10.0 mi North 9.2 mph - N/A   Partly Cloudy